Regional Weather Roundup
Issued by NWS

Home | Current Version | Previous Version | Graphics & Text | Print | Product List | Glossary On
Versions: 1 2 3 4 5 6 7 8 9 10 11 12 13 14 15 16 17 18 19 20 21 22 23 24 25 26 27 28 29 30 31 32 33 34 35 36 37 38 39 40 41 42 43 44 45 46 47 48 49 50
000
ASUS43 KTOP 230308
RWRKS

WEATHER ROUNDUP FOR KANSAS
NATIONAL WEATHER SERVICE GOODLAND KS
900 PM CST THU FEB 22 2018

NOTE:  "FAIR" INDICATES FEW OR NO CLOUDS BELOW 12,000 FEET WITH NO
SIGNIFICANT WEATHER AND/OR OBSTRUCTIONS TO VISIBILITY.

KSZ001>006-013>018-027>032-041>047-230400-
NORTHWEST KANSAS

CITY           SKY/WX    TMP DP  RH WIND       PRES   REMARKS
GOODLAND       CLEAR     16  13  88 NE3       30.06R
HAYS           CLOUDY    29  27  92 NE6       30.14S FOG
HILL CITY      CLOUDY    27  27 100 NE3       30.14S
RUSSELL        CLOUDY    31  31 100 N5        30.14R FOG
$$

KSZ061>065-074>080-084>089-230400-
SOUTHWEST KANSAS

CITY           SKY/WX    TMP DP  RH WIND       PRES   REMARKS
DODGE CITY     FOG       30  28  92 SE8       30.08R VSB 1/4
ELKHART        CLEAR     36  29  75 S8        30.01R
GARDEN CITY    CLOUDY    30  28  92 E12       30.05R WCI  20
GREAT BEND     CLOUDY    30  29  96 CALM      30.15R FOG
LIBERAL        CLEAR     29  28  96 S14       30.04S WCI  18
PRATT          FOG       30  28  95 S5        30.14R VSB 1
$$

KSZ066>073-081>083-090>101-230400-
SOUTHEAST KANSAS

CITY           SKY/WX    TMP DP  RH WIND       PRES   REMARKS
CHANUTE        CLOUDY    34  33  96 NW6       30.19S FOG
COFFEYVILLE    CLOUDY    35  35 100 NW6       30.20R FOG
HUTCHINSON     CLOUDY    31  31 100 S7        30.15R FOG
MEDICINE LODGE   N/A     30  29  96 S5        30.16R
NEWTON         CLOUDY    31  29  92 SW5       30.16R FOG
PARSONS        CLOUDY    34  34 100 NW7       30.20S FOG
WICHITA INTL   FRZ DRZL  32  32 100 SW6       30.17R FOG
WICHITA JABRA  CLOUDY    31  31 100 S6        30.16S FOG
WICHITA MCCONL CLOUDY    32  32  99 CALM      30.16S FOG
WINFIELD       CLOUDY    32  32 100 S3        30.19S FOG
$$

KSZ007>012-019>026-033>040-048>060-102>105-230400-
NORTHEAST KANSAS

CITY           SKY/WX    TMP DP  RH WIND       PRES   REMARKS
CONCORDIA      CLOUDY    30  30 100 NW6       30.16S FOG
EMPORIA        FOG       32  31  96 E5        30.16F VSB 1
LAWRENCE       LGT RAIN  33  33 100 W3        30.18S VSB 1
MANHATTAN      CLOUDY    33  32  96 CALM      30.17R FOG
MARYSVILLE     RAIN      32  32 100 CALM      30.16F
OLATHE IND     MIX PCPN  33  33 100 W3        30.17S FOG
OLATHE EXE     CLOUDY    32  32 100 W3        30.16R FOG
SALINA         CLOUDY    32  31  96 W3        30.18R
TOPEKA BILLARD LGT RAIN  33  33 100 CALM      30.19R FOG
TOPEKA FORBES  MIX PCPN  34  33  96 CALM      30.18R FOG
$$




USA.gov is the U.S. government's official web portal to all federal, state and local government web resources and services.